Probability
0 0 0 0 0 0 0 0 0 0 0 0 0 0 0 0 0 0 0 0 0 0 0 0 0 0 0 0 0 0 0 0 0 0 0 0 0 0
0 0 0 0 0 0 0 0 0 0 0 0 0 0 0 0 0 0 0 0 0 0 0 0 0 0 0 0 0 0 0 0 0 0 0 0 0 0
0 0 0 0 0 0 0 0 0 0 0 0 0 0 0 0 0 0 0 0 0 0 0 0 0 0 0 0 0 0 0 0 0 0 0 0 0 0
0 0 0 0 0 0 0 0 0 0 0 0 0 0 0 0 0 0 0 0 0 0 0 0 0 0 0 0 0 0 0 0 0 0 0 0 0 0
0 0 0 0 0 0 0 0 0 0 0 0 0 0 0 0 0 0 0 0 0 0 0 0 0 0 0 0 0 0 0 0 0 0 0 0 0 0
0 0 0 0 0 0 0 0 0 0 0 0 0 0 0 0 0 0 0 0 0 0 0 0 0 0 0 0 0 0 0 0 0 0 0 0 0 0
0 0 0 0 0 0 0 0 0 0 0 0 0 0 0 0 0 0 0 0 0 0 0 0 0 0 0 0 0 0 0 0 0 0 0 0 0 0
0 0 0 0 0 0 0 0 0 0 0 0 0 0 0 0 0 0 0 0 0 0 0 0 0 0 0 0 0 0 0 0 0 0 0 0 0 0
0 0 0 0 0 0 0 0 0 0 0 0 0 0 0 0 0 0 0 0 0 0 0 0 0 0 0 0 0 0 0 0 0 0 0 0 0 0
0 0 0 0 0 0 0 0 0 0 0 0 0 0 0 0 0 0 0 0 0 0 0 0 0 0 0 0 0 0 0 0 0 0 0 0 0 0
0 0 0 0 0 0 0 0 0 0 0 0 0 0 0 0 0 0 0 0 0 0 0 0 0 0 0 0 0 0 0 0 0 0 0 0 0 0
0 0 0 0 0 0 0 0 0 0 0 0 0 0 0 0 0 0 0 0 0 0 0 0 0 0 0 0 0 0 0 0 0 0 0 0 0 0
0 0 0 0 0 0 0 0 0 0 0 0 0 0 0 0 0 0 0 0 0 0 0 0 0 0 0 0 0 0 0 0 0 0 0 0 0 0
0 0 0 0 0 0 0 0 0 0 0 0 0 0 0 0 0 0 0 0 0 0 0 0 0 0 0 0 0 0 0 0 0 0 0 0 0 0
0 0 0 0 0 0 0 0 0 0 0 0 0 0 0 0 0 0 0 0 0 0 0 0 0 0 0 0 0 0 0 0 0 0 0 0 0 0
0 0 0 0 0 0 0 0 0 0 0 0 0 0 0 0 0 0 0 0 0 0 0 0 0 0 0 0 0 0 0 0 0 0 0 0 0 0
0 0 0 0 0 0 0 0 0 0 0 0 0 0 0 0 0 0 0 0 0 0 0 0 0 0 0 0 0 0 0 0 0 0 0 0 0 0
0 0 0 0 0 0 0 0 0 0 0 0 0 0 0 0 0 0 0 0 0 0 0 0 0 0 0 0 0 0 0 0 0 0 0 0 0 0
0 0 0 0 0 0 0 0 0 0 0 0 0 0 0 0 0 0 0 0 0 0 0 0 0 0 0 0 0 0 0 0 0 0 0 0 0 0
0 0 0 0 0 0 0 0 0 0 0 0 0 0 0 0 0 0 0 0 0 0 0 0 0 0 0 0 0 0 0 0 0 0 0 0 0 0
0 0 0 0 0 0 0 0 0 0 0 0 0 0 0 0 0 0 0 0 0 0 0 0 0 0 0 0 0 0 0 0 0 0 0 0 0 0
0 0 0 0 0 0 0 0 0 0 0 0 0 0 0 0 0 0 0 0 0 0 0 0 0 0 0 0 0 0 0 0 0 0 0 0 0 0
0 0 0 0 0 0 0 0 0 0 0 0 0 0 0 0 0 0 0 0 0 0 0 0 0 0 0 0 0 0 0 0 0 0 0 0 0 0
Wind_Speed
4 4 4 4 4 4 4 5 6 10 11 8 5 5 5 6 11 9 9 17 22 22 22 21 22 22 23 23 23 22 22 22 21 21 21 21 20 20
3 4 5 4 4 4 4 5 5 8 11 8 8 8 8 9 14 10 10 20 20 21 21 21 21 22 23 22 22 22 22 22 21 21 21 20 20 20
4 5 6 6 5 4 4 5 5 6 11 11 8 8 9 9 10 8 9 9 10 18 20 21 21 22 22 21 21 21 21 20 20 20 20 19 19 18
5 6 7 6 6 5 5 6 6 6 8 13 10 8 9 9 9 10 9 9 9 16 19 20 21 21 20 20 19 19 19 18 18 18 17 17 17 18
6 6 7 6 7 6 6 6 6 6 6 9 11 8 7 8 9 9 10 8 9 12 16 18 19 19 19 18 17 16 16 16 16 15 15 15 16 17
6 6 6 6 7 8 7 7 6 7 7 8 9 8 8 7 7 8 9 7 8 10 12 14 16 17 17 17 15 13 13 13 14 14 14 14 14 13
6 6 6 8 10 9 7 7 6 6 7 7 8 8 8 7 7 7 10 10 9 7 7 8 9 8 9 11 11 10 10 10 10 10 10 11 10 10
6 6 7 8 10 13 14 13 11 9 8 7 8 9 10 8 8 8 9 10 9 5 6 8 7 7 7 5 8 10 9 9 7 5 4 4 4 5
5 6 7 7 10 7 10 13 12 14 13 10 10 10 10 9 9 10 9 9 10 8 7 8 6 7 7 7 9 8 7 6 5 4 3 2 1 0
5 6 7 8 8 9 8 8 8 8 9 8 8 9 9 9 9 10 10 9 8 6 4 6 6 6 7 6 8 7 6 5 5 5 4 3 2 2
5 6 7 7 11 13 9 8 9 8 9 12 13 13 15 15 12 7 7 7 8 6 3 3 4 6 6 5 6 8 7 6 5 5 4 4 4 3
5 5 8 10 13 14 8 7 9 9 8 8 8 10 9 10 12 7 5 6 6 6 3 3 4 4 4 3 4 4 5 6 7 6 6 6 4 2
5 5 5 12 14 14 11 6 9 10 7 6 6 6 6 5 5 5 4 4 5 5 4 3 4 3 3 4 4 4 4 4 4 4 5 6 5 3
5 5 6 12 14 13 10 10 13 10 5 5 5 5 5 5 5 5 5 5 4 6 6 4 3 3 3 3 3 3 3 3 3 3 3 5 5 4
4 8 11 12 12 8 10 12 10 5 4 5 5 5 5 5 5 5 5 5 5 4 4 4 2 2 2 2 3 3 3 3 3 3 3 3 2 2
5 7 11 10 8 8 8 7 5 4 4 4 5 5 5 5 4 4 5 5 4 4 5 4 3 2 1 2 1 2 3 2 3 4 3 3 3 3
5 4 4 4 5 5 4 5 4 5 5 4 4 5 5 4 5 4 4 4 3 4 4 4 4 3 2 2 2 3 3 3 3 3 3 4 4 3
5 3 4 4 4 5 5 5 5 4 4 4 4 4 4 4 5 4 4 4 4 4 4 4 4 3 3 4 6 3 3 3 3 3 3 3 4 4
4 3 3 4 4 4 4 4 5 5 4 4 4 4 3 4 4 4 4 4 4 4 4 4 4 3 3 4 5 6 3 3 3 3 3 2 2 3
3 3 4 4 4 4 4 4 4 4 4 4 3 3 3 3 3 3 3 4 3 4 4 4 4 3 2 2 2 4 6 3 2 2 2 2 2 3
4 4 4 4 4 4 4 4 4 4 4 4 3 3 3 2 3 3 3 4 4 3 4 4 4 5 2 1 2 4 5 7 5 2 2 2 3 4
4 4 4 4 4 4 4 4 4 4 4 3 3 3 3 2 2 3 3 3 3 3 3 3 4 4 3 3 4 3 4 5 7 9 9 6 2 2
4 4 4 4 4 4 4 4 4 4 3 3 3 3 3 2 2 2 2 2 3 3 3 3 3 3 3 3 3 3 5 5 4 6 6 10 10 8
Wind_Direction
268 272 276 276 271 269 267 267 281 297 299 297 298 293 296 294 299 301 295 300 302 300 298 296 296 294 292 287 284 283 282 279 276 274 272 270 272 274
276 279 281 280 278 272 268 268 263 272 286 292 291 297 301 302 304 302 296 303 304 304 301 297 295 295 293 289 284 280 279 276 275 272 270 268 269 273
288 286 286 285 282 281 277 274 270 267 279 290 290 296 297 299 304 299 298 298 301 305 305 302 299 296 293 288 284 281 278 276 274 272 269 267 267 270
291 290 288 291 289 286 280 278 276 271 275 290 298 301 300 302 303 305 308 307 302 306 309 309 304 300 295 290 285 283 280 277 276 271 267 266 266 269
286 286 287 289 289 289 284 280 279 281 277 284 294 299 300 304 307 305 304 304 306 309 311 311 310 308 305 298 291 286 281 278 274 266 265 267 269 269
288 286 285 284 285 288 287 284 285 286 284 286 293 300 302 304 304 309 312 314 311 311 310 311 311 313 311 307 303 297 287 278 272 265 263 264 264 261
301 298 292 293 293 296 297 295 293 290 290 292 295 301 304 312 313 311 309 311 308 305 309 314 314 314 315 311 307 304 302 294 281 275 267 258 256 250
305 307 304 302 303 304 304 304 300 296 297 294 295 297 301 305 308 308 308 311 310 314 318 314 316 318 319 317 316 312 309 306 298 289 294 278 259 245
307 309 311 311 313 306 306 309 305 301 295 291 290 292 296 302 303 303 303 302 298 304 311 309 317 317 322 326 326 324 329 333 340 350 357 358 354 84
303 302 304 306 307 311 307 306 302 299 297 293 285 288 291 293 289 289 292 296 295 295 298 301 312 317 324 329 335 337 343 348 356 1 4 6 23 44
308 308 309 304 311 321 318 311 309 306 309 307 305 304 306 308 306 303 302 303 304 307 306 291 305 315 324 334 349 359 3 11 17 19 18 18 34 48
313 311 314 319 323 326 321 315 315 316 316 316 316 316 314 315 317 309 301 301 302 304 311 314 310 321 322 330 349 354 2 11 14 22 23 23 29 42
314 316 315 326 328 329 329 321 319 322 321 320 319 319 320 321 322 321 313 300 297 291 302 310 309 315 302 311 333 353 359 356 1 13 26 35 41 53
312 313 315 325 329 332 334 332 332 333 329 328 327 328 328 331 332 330 325 317 299 291 298 296 291 301 306 311 321 335 352 357 2 10 19 30 34 46
315 319 325 331 333 334 337 338 339 339 334 332 329 325 323 321 321 324 324 325 331 330 326 317 300 298 300 303 317 325 336 356 8 16 16 22 25 27
326 324 329 334 337 334 337 342 341 332 330 325 321 321 323 329 333 333 335 339 351 354 355 357 358 0 355 340 344 348 343 348 356 2 11 15 15 14
324 324 332 336 342 341 339 337 335 336 337 330 325 325 329 335 339 338 339 346 358 352 352 358 2 18 29 18 26 18 17 20 14 11 25 29 21 12
337 335 334 336 335 333 333 334 335 335 332 329 328 328 333 337 337 339 346 353 354 350 351 347 350 8 25 33 25 21 21 16 11 19 33 41 25 13
348 335 330 329 327 327 326 326 326 327 324 324 325 330 335 339 340 342 347 355 357 356 353 350 356 9 41 33 7 13 20 11 16 27 30 41 30 4
339 328 324 323 322 322 322 321 322 326 327 327 328 333 337 337 343 346 347 353 355 357 359 0 6 6 15 10 356 360 7 11 23 28 22 29 32 22
328 325 321 318 318 317 316 316 318 321 326 329 332 333 332 337 343 343 350 355 356 0 0 353 340 341 332 16 50 25 14 19 28 25 12 37 35 31
318 317 317 317 315 313 313 314 318 323 328 329 332 331 329 332 338 341 349 351 352 355 352 346 347 1 23 54 61 40 23 20 28 34 37 42 55 50
313 312 313 314 312 311 311 312 315 319 321 323 328 327 327 331 337 342 343 346 352 357 359 1 8 23 35 49 60 54 45 32 31 40 38 38 53 62